SCP
0 0 0 0 0 0 0 0 0 0 0 0 0 0 0 0 0 0 0 0 0 0 0 0 0 0 0 0 0 -0 0 0 0 0 0 0 0 0 0 0 0 0 0 0
0 0 0 0 0 0 0 0 0 0 0 0 0 0 0 0 0 0 0 0 0 0 0 0 0 0 0 0 0 0 0 0 0 0 0 0 0 0 0 0 0 0 0 0
0 0 0 0 0 0 0 0 0 0 0 0 0 0 0 0 0 0 0 0 0 0 0 0 0 0 0 0 0 0 0 0 0 0 0 0 0 0 0 0 0 0 0 0
0 0 0 0 0 0 0 0 0 -0 -0 -0 -0 -0 -0 -0 -0 -0 -0 -0 -0 -0 -0 -0 0 0 0 0 0 0 0 0 0 0 0 0 0 0 0 0 0 0 0 0
0 0 0 0 0 0 0 0 -0 0 0 0 0 0 0 -0 -0 -0 -0 -0 -0 -0 -0 -0 -0 -0 0 0 0 -0 0 0 0 0 0 0 0 0 0 0 0 0 0 0
0 0 0 0 0 0 0 0 0 0 0 0 -0 0 -0 0 -0 -0 -0 -0 -0 -0 -0 -0 -0 -0 0 0 -0 -0 -0 0 0 0 0 0 0 0 0 0 0 0 0 0
0 0 0 0 0 0 0 0 0 0 0 0 0 0 -0 0 0 -0 -0 -0 -0 -0 -0 -0 -0 -0 -0 -0 0 0 0 0 0 0 0 0 0 0 0 0 0 0 0 0
0 0 0 0 0 0 0 0 0 0 0 0 0 -0 -0 0 0 -0 -0 -0 -0 -0 -0 -0 -0 -0 -0 0 0 0 0 0 0 0 0 0 0 0 0 0 0 0 0 0
0 0 0 0 0 0 0 0 0 0 0 0 0 0 0 0 0 -0 -0 -0 -0 -0 -0 -0 -0 -0 0 0 0 0 0 0 0 0 0 0 0 0 0 0 0 0 0 0
0 0 0 0 0 0 0 0 0 0 0 0 0 0 0 -0 -0 -0 -0 -0 -0 -0 -0 -0 -0 -0 0 0 0 0 0 0 0 0 0 0 0 0 0 0 0 0 0 0
0 0 0 0 0 0 0 0 0 0 0 0 0 0 0 0 0 -0 -0 -0 -0 -0 -0 0 0 0 0 0 0 0 0 0 0 0 0 0 0 0 0 0 0 0 0 0
0 0 0 0 0 0 0 0 0 0 0 0 0 0 0 0 0 0 -0 -0 -0 -0 0 0 0 0 0 0 0 0 0 0 0 0 0 0 0 0 -0 0 0 0 0 0
0 0 0 0 0 0 0 0 0 0 0 0 0 0 0 -0 0 -0 -0 -0 0 0 0 0 0 0 0 0 0 0 0 0 0 0 0 0 0 -0 0 0 -0 -0 -0 -0
0 0 0 0 0 0 0 0 0 0 0 0 0 0 0 0 0 0 0 0 0 0 0 0 0 0 0 0 0 0 0 0 0 0 0 0 0 -0 -0 0 -0 -0 -0 -0
0 0 0 0 0 0 0 0 0 0 0 0 0 0 0 0 0 0 0 0 0 -0 0 0 0 0 0 0 0 0 0 0 0 0 0 0 0 0 -0 -0 -0 -0 -0 -0
0 0 0 0 0 0 0 0 0 0 0 0 0 0 0 0 0 0 -0 -0 0 0 0 0 0 0 0 0 0 0 0 0 0 0 0 0 0 0 0 -0 -0 -0 -0 -0
0 0 0 0 0 0 0 0 0 0 0 0 0 0 0 0 0 0 0 0 0 0 0 0 0 0 0 0 0 0 0 0 0 0 0 0 0 0 0 -0 -0 -0 -0 -0
0 0 0 0 0 0 0 0 0 0 0 0 0 0 0 0 0 0 0 0 0 0 0 0 0 0 0 0 0 0 0 0 0 0 0 0 0 0 0 -0 -0 -0 -0 -0
0 0 0 0 0 0 0 0 0 0 0 0 0 0 0 0 0 0 0 0 0 0 0 0 0 0 0 0 0 0 0 0 0 0 0 0 0 0 0 0 0 -0 -0 -0
0 0 0 0 0 0 0 0 0 0 0 0 -0 -0 -0 -0 -0 0 0 0 0 0 0 0 0 0 0 0 0 0 0 0 0 0 0 0 0 0 0 -0 -0 -0 -0 0
0 0 0 0 0 0 0 0 0 0 0 0 0 0 0 -0 0 0 0 0 0 0 0 0 0 0 0 0 0 0 0 0 0 0 0 0 0 0 0 0 0 0 0 0
0 0 0 0 0 0 0 0 0 -0 0 -0 0 0 0 0 -0 -0 -0 0 -0 -0 0 0 0 0 0 0 0 0 0 0 0 0 0 0 0 0 0 0 0 0 0 0
0 0 0 0 0 0 0 0 0 0 0 -0 -0 0 0 0 0 0 0 0 0 0 -0 0 0 0 0 0 0 0 0 0 0 0 0 0 0 0 0 0 0 0 0 0
0 0 0 0 0 0 0 0 0 0 -0 0 0 -0 -0 0 0 0 0 0 0 0 0 0 0 0 0 0 0 0 0 0 0 0 0 0 0 0 0 0 0 0 0 0
0 0 0 0 0 0 0 0 0 0 0 0 0 0 0 0 0 0 0 0 0 -0 -0 -0 0 0 0 0 0 0 0 0 0 0 0 0 0 0 0 0 0 0 0 0
0 0 0 0 -0 -0 0 -0 -0 -0 -0 0 0 0 0 0 0 0 0 0 0 0 0 0 0 0 0 -0 0 0 0 0 0 0 0 0 0 0 0 0 0 0 0 0
Wind_Speed_500mb
8 11 7 15 12 21 30 26 37 38 28 20 17 17 27 26 43 47 55 62 69 75 63 51 43 28 11 10 25 33 42 41 24 23 31 27 30 14 13 28 28 42 71 68
10 4 10 18 20 26 27 37 31 20 36 33 10 20 21 27 37 41 48 57 64 82 77 63 45 40 21 12 12 18 28 29 24 29 32 28 23 15 15 28 32 46 47 56
2 6 12 18 27 36 31 18 27 41 36 12 6 8 26 31 37 51 57 56 65 70 79 84 60 36 28 15 12 21 29 29 29 32 32 26 29 21 28 33 39 27 21 57
8 13 14 18 19 33 22 16 37 38 14 4 4 5 31 31 29 38 59 67 72 79 85 75 65 43 28 22 23 23 28 35 37 30 30 29 33 32 41 37 28 30 30 49
8 12 17 10 19 27 16 39 29 21 3 2 5 8 13 25 34 48 53 69 73 76 74 73 58 46 27 25 28 37 28 32 33 25 24 27 32 29 28 34 31 35 29 48
11 17 6 7 27 10 36 12 6 4 5 10 17 8 11 18 26 36 47 64 70 76 75 72 51 44 47 18 25 26 26 29 21 24 28 31 25 34 48 42 37 42 56 63
12 9 6 11 18 7 35 14 8 12 10 7 6 16 3 12 17 20 37 58 67 67 67 70 61 54 46 30 10 8 7 7 10 14 29 37 36 45 46 47 52 51 53 51
8 16 13 14 9 9 13 8 6 9 2 6 11 5 6 14 21 37 44 46 48 56 66 62 58 51 44 35 22 13 6 3 13 19 37 44 45 50 47 48 49 52 42 48
9 12 6 11 5 7 14 10 6 1 5 3 6 1 20 34 25 37 45 52 59 66 65 62 53 48 43 34 29 21 18 19 30 39 52 46 54 53 49 51 49 48 50 48
6 9 8 4 14 9 9 6 7 4 8 8 6 3 6 41 41 36 40 50 55 58 62 63 54 48 40 34 30 26 27 33 42 59 69 74 73 71 70 66 66 68 72 69
4 7 14 9 5 8 8 7 5 6 4 3 5 7 5 18 21 25 36 47 53 59 62 54 47 43 41 33 35 37 40 46 51 71 87 87 84 82 85 87 90 90 88 85
3 6 8 13 10 11 8 7 2 3 6 3 2 4 5 12 21 30 41 45 43 47 50 48 49 43 42 42 48 52 57 57 62 81 94 101 101 99 102 102 99 93 92 89
5 2 8 18 7 3 4 7 4 6 6 5 2 5 6 22 24 32 33 41 39 43 49 53 49 51 49 52 60 60 63 60 74 94 118 115 112 110 109 104 100 98 91 88
5 2 10 9 16 2 16 10 14 5 4 9 8 8 25 30 25 34 39 40 43 48 54 59 54 54 56 57 63 66 59 65 79 108 120 119 112 109 105 104 97 93 90 88
6 1 3 9 13 1 8 12 14 8 3 1 15 6 6 13 21 31 32 37 43 51 59 58 56 53 59 60 60 55 58 67 93 114 113 115 110 107 103 99 96 91 86 82
3 2 4 9 6 3 9 18 4 10 5 3 11 4 8 13 16 26 34 35 43 48 49 50 50 53 61 48 41 50 70 84 99 109 109 103 100 95 90 88 86 81 78 74
3 3 5 8 4 5 11 11 3 10 6 7 7 9 3 8 13 21 27 33 37 43 45 50 53 49 41 45 53 68 81 88 93 96 92 87 85 83 80 78 74 71 69 63
2 3 4 6 7 9 11 7 5 11 12 11 4 8 6 9 14 20 25 33 39 45 48 47 41 39 44 54 67 74 78 82 82 83 81 76 73 74 72 69 68 65 61 59
6 1 4 5 3 9 6 9 10 10 6 17 11 8 13 14 9 17 20 27 33 39 39 35 36 44 52 60 64 69 73 73 73 74 70 66 64 64 61 60 58 55 50 50
4 7 6 4 4 6 13 7 13 5 8 36 26 21 19 22 5 6 12 25 36 37 37 35 37 41 47 54 60 62 67 65 67 62 60 56 54 52 52 51 48 45 43 41
4 3 7 5 5 14 9 13 14 9 10 40 51 40 25 7 9 31 28 31 34 35 34 33 35 41 44 44 47 53 54 58 55 51 49 48 46 45 44 42 38 35 35 34
12 11 8 4 5 13 21 12 14 8 21 50 47 44 38 27 36 34 34 35 37 36 31 29 31 36 38 36 36 47 48 49 44 41 39 39 38 38 35 30 30 29 28 28
5 11 7 15 11 6 67 7 34 20 45 51 47 42 37 51 46 41 39 39 38 35 33 31 29 32 34 33 31 38 43 38 34 31 32 30 29 29 28 24 25 22 21 22
9 9 4 7 5 12 59 38 31 39 49 46 41 46 51 54 53 50 47 44 41 37 31 29 30 31 34 33 32 32 35 30 24 22 24 24 19 18 17 17 19 18 19 22
9 14 9 12 7 4 29 68 39 52 49 50 47 49 51 54 58 55 54 48 42 38 37 35 32 33 33 33 30 29 27 24 16 14 16 15 15 14 14 15 17 19 19 19
23 14 11 13 24 14 12 69 57 66 64 59 58 57 52 50 53 54 52 48 45 43 41 39 36 33 31 30 26 24 22 21 14 11 12 11 11 11 12 12 13 14 18 24
Wind_Direction_500mb
306 57 1 309 290 277 293 312 312 305 310 358 340 316 351 47 28 20 13 2 352 345 333 320 298 294 324 283 274 273 279 261 260 274 281 258 234 229 221 210 216 204 210 213
14 40 352 348 337 319 319 313 308 301 330 314 176 11 59 42 37 22 14 3 352 346 349 344 320 282 270 297 290 283 272 268 253 272 276 269 239 214 208 194 191 195 222 234
291 308 350 342 327 329 335 316 327 309 319 318 163 117 28 11 26 8 10 2 356 346 339 344 344 294 264 267 263 273 279 273 266 269 270 261 228 210 181 180 194 198 209 209
275 325 332 330 334 343 321 340 310 308 334 321 101 160 30 351 349 7 4 358 350 347 352 349 358 338 273 245 245 286 282 263 262 262 247 234 226 212 203 192 171 167 179 198
283 308 316 348 339 334 262 317 303 300 260 268 77 75 347 359 355 354 353 351 346 347 350 354 7 359 313 286 278 291 289 272 263 254 222 226 223 220 196 165 163 181 189 196
261 289 7 332 314 288 332 320 114 194 85 37 3 94 8 7 345 340 343 345 346 350 357 7 17 33 39 348 298 291 289 278 281 233 222 216 200 193 172 165 161 177 183 190
331 295 350 353 334 312 358 22 6 12 19 17 45 57 196 347 4 343 334 338 344 351 0 11 18 26 34 35 40 22 345 301 265 216 210 198 207 186 169 160 174 174 180 184
23 340 22 333 120 250 320 97 114 172 163 273 27 2 193 73 18 348 345 342 345 355 13 15 21 28 35 27 37 55 74 174 197 189 183 186 174 154 158 158 166 170 183 189
19 285 330 64 85 55 318 34 230 144 282 289 152 109 143 1 353 350 350 350 352 0 6 12 24 34 41 44 49 66 101 116 139 145 147 159 149 143 144 141 150 154 142 140
255 307 277 21 41 11 90 296 23 21 9 334 305 64 293 338 344 343 345 344 345 356 7 17 31 40 52 61 69 85 109 116 123 129 131 132 127 125 125 125 122 123 120 119
152 117 294 25 17 221 13 3 330 279 142 174 314 307 256 310 327 333 325 335 350 0 13 26 37 49 62 72 81 94 105 104 111 119 124 124 120 120 118 116 115 113 114 113
196 177 280 257 244 194 139 200 147 78 304 60 230 285 273 329 340 339 333 343 358 14 32 42 48 59 71 80 84 94 100 95 98 111 117 113 113 112 110 108 107 109 108 107
269 2 343 334 320 20 25 33 318 236 271 102 280 326 329 356 347 347 344 351 1 26 44 50 55 62 70 79 89 95 95 94 96 104 109 109 110 109 108 108 108 107 107 104
159 117 148 178 238 210 314 354 13 20 47 303 157 283 342 339 341 345 351 2 9 36 45 58 64 66 71 84 88 91 87 89 99 107 110 110 110 109 108 108 108 105 105 105
105 259 133 250 249 296 254 296 72 55 244 82 310 94 312 319 326 334 353 18 32 36 50 58 68 71 84 90 89 88 88 95 103 106 107 106 108 107 107 106 104 105 104 101
348 237 73 307 341 74 311 299 66 99 309 309 331 334 132 16 349 0 19 32 35 43 61 67 79 87 88 89 88 93 103 107 107 104 103 105 106 106 106 106 104 103 101 100
43 97 75 281 30 31 340 277 316 119 269 204 40 253 78 21 356 14 39 56 61 67 70 75 81 90 99 101 106 106 105 104 101 101 102 103 103 103 102 101 100 97 96 98
19 78 110 243 16 27 248 283 179 138 155 251 266 263 240 139 74 58 72 80 78 77 77 83 90 96 101 104 104 105 104 102 101 103 104 105 105 103 101 99 98 98 96 92
138 123 359 72 193 284 297 229 205 153 255 181 200 226 193 182 127 54 86 92 89 89 94 95 100 106 109 110 110 109 108 108 107 105 104 103 101 101 100 99 96 93 94 92
153 104 103 37 96 217 234 234 220 132 345 171 183 196 181 174 123 240 132 112 102 100 106 111 113 113 114 114 114 114 109 108 103 104 103 102 103 101 99 95 93 90 87 89
239 309 172 217 239 286 240 162 141 68 235 168 171 174 177 193 192 143 133 121 120 124 122 117 119 120 115 116 117 111 109 104 102 104 106 109 106 100 97 95 93 91 87 84
177 150 200 90 43 309 164 109 162 217 149 168 173 170 166 154 154 150 148 146 141 139 134 133 131 124 119 120 122 116 112 108 111 112 111 106 102 99 95 98 98 87 76 69
280 190 188 181 216 170 178 184 210 192 171 178 178 175 170 160 164 163 160 157 154 154 152 147 145 137 133 130 125 119 111 114 115 115 111 109 104 98 93 83 78 74 67 57
251 178 223 32 254 210 199 210 207 194 185 180 182 177 173 169 169 167 168 167 167 164 164 162 157 149 142 138 136 129 123 123 124 120 107 100 98 97 96 88 77 65 57 46
190 146 188 265 271 231 233 213 206 188 189 183 184 186 178 178 174 175 175 178 177 177 174 169 164 162 157 150 148 135 129 122 129 121 115 112 106 96 74 55 43 33 27 21
186 188 175 222 201 179 233 203 191 189 187 186 184 183 187 189 183 180 181 182 182 181 179 175 171 169 163 155 156 149 144 137 141 135 126 113 90 69 52 40 28 16 13 7
Wind_Speed_850mb
8 11 7 15 12 21 30 26 37 38 28 20 17 17 27 26 43 47 55 62 69 75 63 51 43 28 11 10 25 33 42 41 24 23 31 27 30 14 13 28 28 42 71 68
10 4 10 18 20 26 27 37 31 20 36 33 10 20 21 27 37 41 48 57 64 82 77 63 45 40 21 12 12 18 28 29 24 29 32 28 23 15 15 28 32 46 47 56
2 6 12 18 27 36 31 18 27 41 36 12 6 8 26 31 37 51 57 56 65 70 79 84 60 36 28 15 12 21 29 29 29 32 32 26 29 21 28 33 39 27 21 57
8 13 14 18 19 33 22 16 37 38 14 4 4 5 31 31 29 38 59 67 72 79 85 75 65 43 28 22 23 23 28 35 37 30 30 29 33 32 41 37 28 30 30 49
8 12 17 10 19 27 16 39 29 21 3 2 5 8 13 25 34 48 53 69 73 76 74 73 58 46 27 25 28 37 28 32 33 25 24 27 32 29 28 34 31 35 29 48
11 17 6 7 27 10 36 12 6 4 5 10 17 8 11 18 26 36 47 64 70 76 75 72 51 44 47 18 25 26 26 29 21 24 28 31 25 34 48 42 37 42 56 63
12 9 6 11 18 7 35 14 8 12 10 7 6 16 3 12 17 20 37 58 67 67 67 70 61 54 46 30 10 8 7 7 10 14 29 37 36 45 46 47 52 51 53 51
8 16 13 14 9 9 13 8 6 9 2 6 11 5 6 14 21 37 44 46 48 56 66 62 58 51 44 35 22 13 6 3 13 19 37 44 45 50 47 48 49 52 42 48
9 12 6 11 5 7 14 10 6 1 5 3 6 1 20 34 25 37 45 52 59 66 65 62 53 48 43 34 29 21 18 19 30 39 52 46 54 53 49 51 49 48 50 48
6 9 8 4 14 9 9 6 7 4 8 8 6 3 6 41 41 36 40 50 55 58 62 63 54 48 40 34 30 26 27 33 42 59 69 74 73 71 70 66 66 68 72 69
4 7 14 9 5 8 8 7 5 6 4 3 5 7 5 18 21 25 36 47 53 59 62 54 47 43 41 33 35 37 40 46 51 71 87 87 84 82 85 87 90 90 88 85
3 6 8 13 10 11 8 7 2 3 6 3 2 4 5 12 21 30 41 45 43 47 50 48 49 43 42 42 48 52 57 57 62 81 94 101 101 99 102 102 99 93 92 89
5 2 8 18 7 3 4 7 4 6 6 5 2 5 6 22 24 32 33 41 39 43 49 53 49 51 49 52 60 60 63 60 74 94 118 115 112 110 109 104 100 98 91 88
5 2 10 9 16 2 16 10 14 5 4 9 8 8 25 30 25 34 39 40 43 48 54 59 54 54 56 57 63 66 59 65 79 108 120 119 112 109 105 104 97 93 90 88
6 1 3 9 13 1 8 12 14 8 3 1 15 6 6 13 21 31 32 37 43 51 59 58 56 53 59 60 60 55 58 67 93 114 113 115 110 107 103 99 96 91 86 82
3 2 4 9 6 3 9 18 4 10 5 3 11 4 8 13 16 26 34 35 43 48 49 50 50 53 61 48 41 50 70 84 99 109 109 103 100 95 90 88 86 81 78 74
3 3 5 8 4 5 11 11 3 10 6 7 7 9 3 8 13 21 27 33 37 43 45 50 53 49 41 45 53 68 81 88 93 96 92 87 85 83 80 78 74 71 69 63
2 3 4 6 7 9 11 7 5 11 12 11 4 8 6 9 14 20 25 33 39 45 48 47 41 39 44 54 67 74 78 82 82 83 81 76 73 74 72 69 68 65 61 59
6 1 4 5 3 9 6 9 10 10 6 17 11 8 13 14 9 17 20 27 33 39 39 35 36 44 52 60 64 69 73 73 73 74 70 66 64 64 61 60 58 55 50 50
4 7 6 4 4 6 13 7 13 5 8 36 26 21 19 22 5 6 12 25 36 37 37 35 37 41 47 54 60 62 67 65 67 62 60 56 54 52 52 51 48 45 43 41
4 3 7 5 5 14 9 13 14 9 10 40 51 40 25 7 9 31 28 31 34 35 34 33 35 41 44 44 47 53 54 58 55 51 49 48 46 45 44 42 38 35 35 34
12 11 8 4 5 13 21 12 14 8 21 50 47 44 38 27 36 34 34 35 37 36 31 29 31 36 38 36 36 47 48 49 44 41 39 39 38 38 35 30 30 29 28 28
5 11 7 15 11 6 67 7 34 20 45 51 47 42 37 51 46 41 39 39 38 35 33 31 29 32 34 33 31 38 43 38 34 31 32 30 29 29 28 24 25 22 21 22
9 9 4 7 5 12 59 38 31 39 49 46 41 46 51 54 53 50 47 44 41 37 31 29 30 31 34 33 32 32 35 30 24 22 24 24 19 18 17 17 19 18 19 22
9 14 9 12 7 4 29 68 39 52 49 50 47 49 51 54 58 55 54 48 42 38 37 35 32 33 33 33 30 29 27 24 16 14 16 15 15 14 14 15 17 19 19 19
23 14 11 13 24 14 12 69 57 66 64 59 58 57 52 50 53 54 52 48 45 43 41 39 36 33 31 30 26 24 22 21 14 11 12 11 11 11 12 12 13 14 18 24
Wind_Direction_850mb
306 57 1 309 290 277 293 312 312 305 310 358 340 316 351 47 28 20 13 2 352 345 333 320 298 294 324 283 274 273 279 261 260 274 281 258 234 229 221 210 216 204 210 213
14 40 352 348 337 319 319 313 308 301 330 314 176 11 59 42 37 22 14 3 352 346 349 344 320 282 270 297 290 283 272 268 253 272 276 269 239 214 208 194 191 195 222 234
291 308 350 342 327 329 335 316 327 309 319 318 163 117 28 11 26 8 10 2 356 346 339 344 344 294 264 267 263 273 279 273 266 269 270 261 228 210 181 180 194 198 209 209
275 325 332 330 334 343 321 340 310 308 334 321 101 160 30 351 349 7 4 358 350 347 352 349 358 338 273 245 245 286 282 263 262 262 247 234 226 212 203 192 171 167 179 198
283 308 316 348 339 334 262 317 303 300 260 268 77 75 347 359 355 354 353 351 346 347 350 354 7 359 313 286 278 291 289 272 263 254 222 226 223 220 196 165 163 181 189 196
261 289 7 332 314 288 332 320 114 194 85 37 3 94 8 7 345 340 343 345 346 350 357 7 17 33 39 348 298 291 289 278 281 233 222 216 200 193 172 165 161 177 183 190
331 295 350 353 334 312 358 22 6 12 19 17 45 57 196 347 4 343 334 338 344 351 0 11 18 26 34 35 40 22 345 301 265 216 210 198 207 186 169 160 174 174 180 184
23 340 22 333 120 250 320 97 114 172 163 273 27 2 193 73 18 348 345 342 345 355 13 15 21 28 35 27 37 55 74 174 197 189 183 186 174 154 158 158 166 170 183 189
19 285 330 64 85 55 318 34 230 144 282 289 152 109 143 1 353 350 350 350 352 0 6 12 24 34 41 44 49 66 101 116 139 145 147 159 149 143 144 141 150 154 142 140
255 307 277 21 41 11 90 296 23 21 9 334 305 64 293 338 344 343 345 344 345 356 7 17 31 40 52 61 69 85 109 116 123 129 131 132 127 125 125 125 122 123 120 119
152 117 294 25 17 221 13 3 330 279 142 174 314 307 256 310 327 333 325 335 350 0 13 26 37 49 62 72 81 94 105 104 111 119 124 124 120 120 118 116 115 113 114 113
196 177 280 257 244 194 139 200 147 78 304 60 230 285 273 329 340 339 333 343 358 14 32 42 48 59 71 80 84 94 100 95 98 111 117 113 113 112 110 108 107 109 108 107
269 2 343 334 320 20 25 33 318 236 271 102 280 326 329 356 347 347 344 351 1 26 44 50 55 62 70 79 89 95 95 94 96 104 109 109 110 109 108 108 108 107 107 104
159 117 148 178 238 210 314 354 13 20 47 303 157 283 342 339 341 345 351 2 9 36 45 58 64 66 71 84 88 91 87 89 99 107 110 110 110 109 108 108 108 105 105 105
105 259 133 250 249 296 254 296 72 55 244 82 310 94 312 319 326 334 353 18 32 36 50 58 68 71 84 90 89 88 88 95 103 106 107 106 108 107 107 106 104 105 104 101
348 237 73 307 341 74 311 299 66 99 309 309 331 334 132 16 349 0 19 32 35 43 61 67 79 87 88 89 88 93 103 107 107 104 103 105 106 106 106 106 104 103 101 100
43 97 75 281 30 31 340 277 316 119 269 204 40 253 78 21 356 14 39 56 61 67 70 75 81 90 99 101 106 106 105 104 101 101 102 103 103 103 102 101 100 97 96 98
19 78 110 243 16 27 248 283 179 138 155 251 266 263 240 139 74 58 72 80 78 77 77 83 90 96 101 104 104 105 104 102 101 103 104 105 105 103 101 99 98 98 96 92
138 123 359 72 193 284 297 229 205 153 255 181 200 226 193 182 127 54 86 92 89 89 94 95 100 106 109 110 110 109 108 108 107 105 104 103 101 101 100 99 96 93 94 92
153 104 103 37 96 217 234 234 220 132 345 171 183 196 181 174 123 240 132 112 102 100 106 111 113 113 114 114 114 114 109 108 103 104 103 102 103 101 99 95 93 90 87 89
239 309 172 217 239 286 240 162 141 68 235 168 171 174 177 193 192 143 133 121 120 124 122 117 119 120 115 116 117 111 109 104 102 104 106 109 106 100 97 95 93 91 87 84
177 150 200 90 43 309 164 109 162 217 149 168 173 170 166 154 154 150 148 146 141 139 134 133 131 124 119 120 122 116 112 108 111 112 111 106 102 99 95 98 98 87 76 69
280 190 188 181 216 170 178 184 210 192 171 178 178 175 170 160 164 163 160 157 154 154 152 147 145 137 133 130 125 119 111 114 115 115 111 109 104 98 93 83 78 74 67 57
251 178 223 32 254 210 199 210 207 194 185 180 182 177 173 169 169 167 168 167 167 164 164 162 157 149 142 138 136 129 123 123 124 120 107 100 98 97 96 88 77 65 57 46
190 146 188 265 271 231 233 213 206 188 189 183 184 186 178 178 174 175 175 178 177 177 174 169 164 162 157 150 148 135 129 122 129 121 115 112 106 96 74 55 43 33 27 21
186 188 175 222 201 179 233 203 191 189 187 186 184 183 187 189 183 180 181 182 182 181 179 175 171 169 163 155 156 149 144 137 141 135 126 113 90 69 52 40 28 16 13 7